AirNav   Everest Fuels
 
 2020 users online  

1K2 Lindsay Municipal Airport
Lindsay, Oklahoma, USA

GOING TO LINDSAY?


FAA INFORMATION EFFECTIVE 02 JANUARY 2020

Location

FAA Identifier: 1K2
Lat/Long: 34-50-58.0250N 097-35-07.0500W
34-50.967083N 097-35.117500W
34.8494514,-97.5852917
(estimated)
Elevation: 968 ft. / 295 m (estimated)
Variation: 07E (1985)
From city: 2 miles NE of LINDSAY, OK
Time zone: UTC -6 (UTC -5 during Daylight Saving Time)
Zip code: 73052

Airport Operations

Airport use: Open to the public
Control tower: no
ARTCC: FORT WORTH CENTER
FSS: MC ALESTER FLIGHT SERVICE STATION
NOTAMs facility: MLC (NOTAM-D service available)
Attendance: UNATNDD
Wind indicator: lighted
Segmented circle: yes
Lights: ACTVT MIRL RY 01/19 - CTAF.
Beacon: white-green (lighted land airport)
Operates sunset to sunrise.

Airport Communications

CTAF: 122.9
WX AWOS-3 at PVJ (20 nm SE): 118.675 (405-238-4452)

Nearby radio navigation aids

VOR radial/distance  VOR name  Freq  Var
IRWr171/30.6WILL ROGERS VORTAC114.1007E

 
NDB name  Hdg/Dist  Freq  Var  ID
MULDROW232/20.551206EHMY .... -- -.--

Airport Services

Parking: tiedowns
Airframe service: NONE
Powerplant service: NONE
Bottled oxygen: NONE
Bulk oxygen: NONE

Runway Information

Runway 1/19

Dimensions: 3010 x 60 ft. / 917 x 18 m
Surface: asphalt, in good condition
Weight bearing capacity: 
Single wheel: 4.0
Runway edge lights: medium intensity
RUNWAY 1  RUNWAY 19
Latitude: 34-50.727500N34-51.206667N
Longitude: 097-35.195833W097-35.039167W
Elevation: 967.9 ft.966.0 ft.
Traffic pattern: leftleft
Runway heading: 008 magnetic, 015 true188 magnetic, 195 true
Markings: basic, in good conditionbasic, in good condition
Touchdown point: yes, no lightsyes, no lights
Obstructions: 17 ft. tree, 340 ft. from runway, 8:1 slope to clearnone

Airport Ownership and Management from official FAA records

Ownership: Publicly-owned
Owner: CITY OF LINDSAY
PO BOX 708, 312 S. MAIN ST.
LINDSAY, OK 73052
Phone 405-756-2019
Manager: STEPHEN MILLS
PO BOX 708, 312 S. MAIN ST.
LINDSAY, OK 73052
Phone 405-756-2019
CITY MANAGER.

Airport Operational Statistics

Aircraft based on the field: 4
Single engine airplanes: 4
    
Aircraft operations: avg 39/month *
51% transient general aviation
49% local general aviation
<1% military
* for 12-month period ending 02 March 2017

Additional Remarks

660 FT AGL ANT 3.2 MI NORTH.
FOR CD CTC FORT WORTH ARTCC AT 817-858-7584.

Instrument Procedures

There are no published instrument procedures at 1K2.

Some nearby airports with instrument procedures:

1K4 - David Jay Perry Airport (19 nm N)
KPVJ - Pauls Valley Municipal Airport (20 nm SE)
KHMY - Muldrow Army Heliport (20 nm NE)
KCHK - Chickasha Municipal Airport (24 nm NW)
KOUN - University of Oklahoma Westheimer Airport (24 nm N)
 
Loc | Ops | Rwys | IFR | FBO | Links
Com | Nav | Svcs | Stats | Notes
Area around 1K2 (Lindsay Municipal Airport)
 
Road maps at: MapQuest Bing Google
 
Aerial photo
WARNING: Photo may not be current or correct
Aerial photo of 1K2 (Lindsay Municipal Airport)
Do you have a better or more recent aerial photo of Lindsay Municipal Airport that you would like to share? If so, please send us your photo.

 
Sectional chart

 
Airport distance calculator
Flying to Lindsay Municipal Airport? Find the distance to fly.

From to 1K2

Sunrise and sunset
Times for 24-Jan-2020
 Local
(UTC-6)
 Zulu
(UTC)
Morning civil twilight07:0813:08
Sunrise07:3513:35
Sunset17:5023:50
Evening civil twilight18:1700:17

Current date and time
Zulu (UTC)  24-Jan-2020 21:01:16
Local (UTC-6)  24-Jan-2020 15:01:16
 
METAR
KPVJ 
20nm SE 
242055Z AUTO 31010G14KT 10SM CLR 11/00 A3007 RMK AO2 T01071005
KOUN 
23nm N 
242046Z 30008KT 10SM CLR 10/M01 A3006
KCHK 
24nm NW 
242055Z AUTO 30008KT 10SM CLR 11/00 A3005 RMK AO2 T01141005
KDUC 
30nm SW 
242055Z AUTO 29007KT 10SM CLR 12/M01 A3010 RMK AO2 T01181012
KOKC 
32nm N 
242052Z 35013G17KT 10SM CLR 09/M01 A3007 RMK AO2 SLP186 T00941011 56025 $
KTIK 
36nm N 
242056Z AUTO 34012KT 10SM CLR 10/M02 A3006 RMK AO2 SLP190 T00991021 57022
TAF
KOUN 
23nm N 
241720Z 2418/2518 33013KT P6SM SCT250 FM242300 33005KT P6SM FEW250 FM251200 14005KT P6SM SCT180
NOTAMs
Click for the latest NOTAMs
NOTAMs are issued by the DoD/FAA and will open in a separate window not controlled by AirNav.

 

 
 

Would you like to see your business listed on this page?

 If your business provides an interesting product or service to pilots, flight crews, aircraft, or users of the Lindsay Municipal Airport, you should consider listing it here.  To start the listing process, click on the button below
 
Add a business
 

Other Pages about Lindsay Municipal Airport

Update a link
 
Copyright © AirNav, LLC. All rights reserved. Privacy Policy  Contact